Location: Unspecified
(38.6373°N, 0.0000°E)
Time: 02:37:16
(UTC+00:00)

Falconsat - Visible Passes

Search period start: 04 April 2026 00:00
Search period end: 14 April 2026 00:00
Orbit: 742 x 794 km, 100.2° (Epoch: 29 March)

Date Brightness Start Highest point End Pass type
(mag) Time Alt. Az. Time Alt. Az. Time Alt. Az.
4 Apr 11.9 01:23:44 10° NNW 01:23:50 10° NNW 01:23:50 10° NNW visible
5 Apr 11.9 00:47:01 10° N 00:47:24 12° N 00:47:24 12° N visible
6 Apr 12.0 00:10:52 10° NNE 00:10:57 10° NNE 00:10:57 10° NNE visible
7 Apr 11.8 01:14:12 10° N 01:14:46 13° N 01:14:46 13° N visible
8 Apr 11.8 00:37:42 10° N 00:38:19 14° N 00:38:19 14° N visible
9 Apr 12.0 00:01:43 10° NNE 00:01:52 11° NNE 00:01:52 11° NNE visible
9 Apr 11.7 01:41:47 10° NNW 01:42:08 11° NNW 01:42:08 11° NNW visible
10 Apr 11.6 01:04:45 10° N 01:05:41 15° N 01:05:41 15° N visible
11 Apr 11.7 00:28:25 10° NNE 00:29:14 15° NNE 00:29:14 15° NNE visible
11 Apr 11.9 23:52:36 10° NNE 23:52:47 11° NNE 23:52:47 11° NNE visible
12 Apr 11.6 01:32:07 10° NNW 01:33:02 14° NNW 01:33:02 14° NNW visible
13 Apr 11.5 00:55:22 10° N 00:56:35 17° N 00:56:35 17° N visible
